Theta_e
325 325 325 325 324 322 323 322 323 325 326 326 326 326 326 326 325 325 325 325 325 324 325 326 326 327 327 328 331 331 330 330 330 331 330 330 330 331 330 330 329 329 329 328 327 325 322 319 317 316 317 317 317 317 317 317 318 318 317 317 318 318 319
325 324 324 323 323 323 323 323 322 323 325 326 325 325 326 325 325 324 325 326 325 323 324 325 326 327 327 328 330 330 330 330 330 330 330 329 330 330 330 329 329 328 327 328 328 325 322 319 316 316 317 317 317 316 315 316 316 317 316 316 317 317 317
325 324 323 323 323 323 323 323 323 322 323 324 325 325 324 324 324 324 325 325 325 324 324 325 326 326 327 328 329 330 330 330 330 330 329 329 329 329 329 328 328 326 325 325 325 323 320 319 317 317 316 317 317 316 314 313 314 314 314 315 315 315 316
326 324 323 323 322 322 322 322 322 322 323 324 324 323 323 323 323 324 325 324 323 324 324 325 325 326 327 328 330 330 329 329 329 329 329 329 329 328 327 326 325 323 322 321 321 319 318 318 318 317 317 316 316 316 314 312 312 312 312 312 312 313 313
326 324 323 322 320 320 320 320 321 321 322 323 322 322 322 322 323 323 323 323 322 323 323 323 324 325 326 328 330 329 329 329 329 329 329 328 327 326 324 323 320 319 319 318 318 316 316 317 318 318 316 315 315 315 313 312 311 311 311 311 311 311 312
326 324 322 321 320 319 318 319 320 321 321 322 321 320 321 322 322 322 322 322 322 322 322 323 323 323 324 326 328 329 329 328 328 328 327 326 324 322 320 317 315 315 314 313 314 314 314 315 317 316 315 314 314 314 313 312 311 310 309 308 309 310 310
325 323 321 320 319 318 318 318 320 320 321 321 320 320 320 321 321 322 322 322 322 322 322 322 321 322 322 322 324 325 325 325 324 323 323 322 320 318 316 314 312 312 311 311 311 312 312 314 316 316 316 315 314 313 313 312 311 310 308 306 306 308 309
323 323 322 321 320 319 318 318 319 320 320 319 319 319 320 320 320 320 320 320 320 321 321 321 320 320 320 319 320 321 320 319 319 318 318 318 317 316 314 312 311 311 312 311 311 311 311 313 314 315 315 315 313 313 313 312 312 310 307 306 305 305 307
321 322 321 320 319 318 318 319 319 319 319 318 318 318 318 319 319 318 317 317 318 319 319 319 318 318 317 317 317 317 317 316 316 315 315 315 315 314 314 312 311 312 313 313 312 312 312 312 314 315 315 315 314 313 313 312 311 309 307 306 305 304 305
318 318 319 318 315 313 314 316 319 319 317 318 318 316 316 316 317 316 314 314 315 316 316 315 315 314 314 314 314 314 314 314 314 313 312 312 312 313 314 313 312 313 314 313 313 313 312 312 313 314 314 314 314 314 313 313 312 310 308 307 306 305 304
315 316 317 316 314 312 310 311 316 319 317 316 317 316 315 314 314 313 312 311 311 313 314 313 312 312 312 312 312 312 311 311 311 311 311 311 311 313 314 314 313 313 314 314 314 314 313 313 312 312 313 313 314 314 314 314 313 311 308 307 306 304 304
315 318 316 313 314 315 311 309 313 317 317 317 316 315 315 314 313 313 311 311 310 311 311 311 311 311 311 310 310 310 310 310 310 311 311 311 312 313 314 314 314 314 314 313 313 314 314 314 312 312 313 314 315 315 315 314 313 311 310 308 305 303 303
315 316 314 311 312 315 313 310 309 310 312 316 316 315 315 314 314 313 312 312 310 310 310 311 311 311 311 310 309 310 311 311 310 310 311 311 312 313 313 314 313 313 314 313 313 314 314 314 314 314 314 314 315 315 315 315 314 311 309 308 306 303 303
314 315 314 312 312 313 313 313 312 310 312 316 317 315 314 315 314 313 313 313 312 311 311 311 312 311 311 311 311 311 311 312 310 311 310 311 312 312 312 312 312 312 313 313 313 313 313 314 314 314 314 314 314 314 314 314 313 311 308 307 306 304 303
318 317 316 315 316 316 315 315 315 315 315 317 317 315 314 315 315 314 314 315 315 313 312 312 313 313 313 312 312 312 312 312 311 311 311 310 311 312 312 311 310 311 312 312 312 312 312 312 313 313 313 313 313 312 313 313 313 312 310 307 306 304 304
321 319 318 318 321 322 319 316 315 316 317 317 316 316 316 315 315 315 315 315 316 316 314 314 314 315 315 315 314 314 314 313 313 313 312 311 310 311 311 311 311 310 311 312 311 311 311 311 311 312 312 312 312 311 311 313 313 313 311 309 307 305 305
322 322 320 320 322 324 322 319 318 318 319 318 316 315 316 316 315 315 315 315 315 315 316 315 315 315 315 315 315 316 315 315 315 315 314 313 312 312 312 312 312 311 311 312 312 312 311 311 311 311 311 311 310 310 311 312 313 313 311 310 308 307 307
323 322 322 321 323 324 323 322 321 320 320 320 318 316 316 316 315 315 314 314 314 314 315 316 315 315 315 315 315 316 316 316 316 316 316 315 314 314 314 314 314 313 312 313 314 313 312 312 311 312 312 311 310 310 311 312 312 312 312 311 309 308 308
323 323 323 322 323 324 323 322 322 322 321 320 320 319 317 316 316 315 315 314 314 314 315 316 316 317 317 318 318 318 318 318 317 316 316 316 316 316 315 315 315 315 314 314 314 314 313 312 312 312 312 311 310 310 311 312 313 313 312 312 311 310 309
323 323 323 323 323 323 322 321 322 322 321 321 321 320 319 318 317 316 316 316 315 316 317 318 319 318 319 320 320 320 320 320 319 318 318 317 316 316 316 316 316 316 315 315 315 315 314 314 313 312 311 311 310 310 310 312 312 313 313 312 312 312 311
323 323 323 322 322 323 322 322 322 322 321 321 321 321 320 319 318 318 318 318 319 319 319 319 318 318 319 320 320 320 321 321 321 320 320 319 318 318 317 317 316 316 316 315 315 315 315 315 314 313 312 311 310 310 310 311 312 313 313 313 313 312 312
323 323 322 322 323 323 322 322 321 321 321 321 321 322 321 320 319 319 320 320 320 318 317 317 316 316 317 318 318 318 318 320 320 320 320 320 319 319 318 317 317 317 316 316 315 314 314 314 314 314 313 313 310 310 310 310 311 312 313 313 313 312 312
324 323 323 322 322 323 322 322 321 321 320 320 321 321 321 320 320 320 320 320 319 316 315 314 314 315 316 315 315 315 316 318 318 320 320 318 318 319 319 319 319 319 317 316 315 315 313 312 312 311 312 313 311 310 310 310 310 311 312 312 312 312 312
324 324 324 323 322 322 322 322 322 321 321 321 320 321 321 320 320 320 320 320 318 315 314 314 314 315 315 314 313 313 315 316 317 318 319 318 318 319 319 319 321 320 319 318 317 317 316 315 313 311 310 310 310 309 309 310 310 310 311 311 311 311 311
323 323 323 323 323 323 322 322 323 322 321 321 320 320 321 320 320 320 319 318 317 315 314 314 314 314 314 314 313 312 314 316 315 314 316 317 317 317 317 318 319 319 319 319 318 318 317 317 316 315 311 308 307 307 307 308 309 310 310 310 310 310 310
321 321 322 322 322 322 322 322 322 322 322 322 320 319 319 319 319 318 317 318 317 317 317 316 315 314 315 314 313 313 314 314 313 312 315 317 316 317 317 317 318 318 318 317 316 317 318 316 316 315 313 308 305 305 304 304 305 306 307 308 308 308 309
320 321 321 321 321 321 321 321 321 322 322 322 320 319 319 319 318 318 318 318 318 319 319 318 316 315 314 313 313 313 314 314 314 315 315 315 315 315 315 316 317 317 316 315 314 315 316 315 313 311 310 306 304 304 303 302 302 303 303 305 306 308 308
318 320 320 320 320 320 321 321 321 322 321 321 321 320 319 319 319 318 319 319 319 320 319 319 317 314 312 313 312 312 313 314 314 315 314 313 313 313 313 313 315 314 313 312 312 311 312 313 310 307 307 306 305 305 303 302 302 303 303 304 305 306 306
314 316 318 319 320 320 320 321 321 321 321 320 320 320 319 319 319 319 320 320 320 320 319 319 317 313 312 312 311 310 313 314 313 313 313 312 312 312 312 313 313 312 310 309 309 308 309 310 310 307 307 306 305 304 302 300 300 301 301 301 302 302 302
310 312 314 317 319 320 320 320 321 321 321 320 320 319 319 319 319 320 320 320 319 319 320 319 316 313 313 312 309 310 313 312 311 312 311 311 311 310 309 310 311 311 308 307 307 306 306 308 309 308 307 306 304 302 300 299 299 300 299 300 300 299 299
309 310 312 313 316 318 319 321 321 321 321 320 320 320 319 319 319 319 319 319 318 318 318 317 315 314 313 310 309 312 312 311 311 311 310 310 309 307 307 307 309 309 307 305 305 304 304 306 308 307 307 306 306 305 302 300 299 299 299 299 299 298 298
308 309 310 311 313 315 317 319 320 321 320 320 320 319 319 319 319 318 318 317 317 317 316 315 315 314 311 308 309 312 311 311 311 310 309 309 307 306 305 306 306 306 306 305 304 304 304 306 308 308 307 307 307 306 304 302 301 301 301 300 300 299 298
307 308 308 310 311 313 314 316 318 320 320 320 319 318 318 318 318 317 316 316 316 316 316 316 314 312 309 308 310 312 311 311 311 309 308 308 307 305 304 303 303 304 304 304 304 303 303 304 307 307 307 307 308 306 303 302 301 300 300 301 300 299 299
306 306 307 308 310 311 312 314 316 318 319 318 318 318 318 317 318 318 317 316 316 315 316 315 313 310 308 309 310 311 311 311 310 309 308 307 307 306 304 302 301 302 302 302 302 303 302 302 303 305 304 304 304 302 301 301 299 298 298 299 299 299 299
304 305 306 307 308 310 312 313 314 316 318 317 317 317 317 316 315 315 315 315 315 314 314 313 311 309 308 309 310 310 311 311 309 308 308 306 307 306 304 302 300 300 301 301 301 301 301 300 300 300 300 299 299 297 297 299 299 298 298 299 299 298 298
303 304 305 306 307 308 310 311 312 314 317 318 318 317 315 313 312 310 310 311 312 312 311 310 309 308 308 309 309 310 310 309 307 307 307 307 306 305 303 301 300 300 299 300 300 299 299 298 298 297 297 296 295 294 295 297 298 298 298 298 298 298 298
302 303 304 305 306 306 308 309 310 312 314 316 316 315 314 313 311 310 309 308 309 310 309 308 309 309 309 309 309 309 309 307 306 307 307 307 306 304 302 301 300 299 298 298 298 297 297 296 296 295 294 294 293 294 296 298 298 298 298 297 297 298 298
Wind_Speed
7 8 8 7 6 6 6 6 6 7 7 7 8 8 9 8 6 5 4 3 3 3 4 4 5 5 5 6 6 6 6 7 7 7 7 8 8 7 6 5 3 4 5 4 3 6 6 5 7 8 9 9 9 9 9 9 9 9 9 9 9 9 10
8 9 9 8 7 7 7 7 6 7 7 7 7 8 8 7 6 5 5 5 4 4 4 4 5 5 5 6 7 6 6 6 5 5 7 7 6 7 7 6 6 6 6 4 4 6 6 6 6 7 9 9 9 9 8 8 9 8 9 9 8 9 10
9 9 9 8 7 7 7 7 6 6 7 7 7 8 7 7 6 5 6 6 6 5 4 5 5 5 5 6 6 5 5 5 4 5 6 6 6 7 8 7 7 7 7 6 6 6 6 6 6 7 9 9 8 8 8 8 8 8 9 9 9 9 9
9 9 9 9 8 8 8 7 7 6 7 8 8 8 7 7 6 7 8 8 6 5 5 5 5 5 5 5 6 6 5 5 5 5 5 5 6 7 7 7 7 6 6 6 6 6 5 6 7 7 9 9 9 9 7 7 8 8 8 8 9 9 9
8 9 9 9 8 8 8 8 8 8 9 9 9 8 8 7 7 8 8 7 6 5 5 5 5 6 5 5 6 6 5 5 5 5 6 6 7 7 6 5 4 4 4 4 5 5 5 7 7 7 8 9 9 9 8 7 8 8 8 8 8 9 9
6 6 8 9 9 8 8 8 9 9 10 9 9 9 8 8 8 8 7 7 7 6 6 6 6 6 6 6 7 8 7 7 6 6 7 7 7 6 5 4 4 4 4 3 4 4 5 7 8 7 8 8 7 8 8 7 7 7 8 8 8 9 9
6 6 7 8 9 9 8 9 8 9 10 10 9 9 8 8 8 8 8 8 7 7 7 7 7 7 6 6 8 9 9 8 7 7 7 7 6 5 5 5 5 5 5 5 4 5 6 7 8 7 7 7 6 7 7 6 5 6 7 8 8 8 8
8 7 7 8 9 9 9 9 8 8 10 10 9 9 8 9 9 9 9 8 8 7 8 7 7 6 6 6 7 8 8 7 7 7 6 6 5 5 6 6 7 7 6 6 5 5 6 6 7 7 7 6 5 5 5 5 5 6 6 7 8 8 7
8 8 8 9 11 11 11 10 8 7 9 9 9 8 8 8 9 9 9 9 9 8 8 7 6 6 6 6 7 7 7 6 6 6 5 6 6 6 7 7 8 8 7 7 6 6 6 6 7 8 7 6 4 4 4 4 5 5 4 5 7 7 6
10 10 10 11 13 13 13 11 8 7 8 8 7 7 8 8 9 9 9 9 9 8 8 7 6 6 6 7 7 7 6 6 6 6 6 6 6 6 7 7 8 9 8 8 8 8 7 7 7 6 5 4 3 3 4 3 4 5 4 4 5 6 6
12 11 12 12 12 13 15 13 9 7 8 7 7 7 8 8 8 9 9 9 9 9 8 7 7 7 7 7 7 7 7 6 7 6 6 6 6 6 7 7 8 8 8 8 8 8 8 7 6 5 3 3 2 2 4 5 4 4 5 4 5 5 5
14 12 12 12 11 12 14 13 9 7 7 7 7 7 7 8 8 8 9 9 9 9 8 8 8 8 8 8 8 8 7 7 7 7 7 7 6 6 7 7 7 7 7 7 7 7 7 7 7 6 6 5 4 4 5 5 4 3 3 4 4 4 4
16 14 13 13 11 11 12 13 10 9 7 6 7 8 8 8 8 9 9 9 9 9 8 8 8 8 8 8 8 8 8 7 7 7 7 7 6 7 6 6 6 6 5 5 6 6 6 6 6 7 7 7 6 5 4 5 6 5 4 3 4 4 3
16 14 13 13 12 10 10 10 10 9 8 7 7 8 8 8 9 9 9 9 9 9 8 8 8 8 8 8 7 7 7 6 7 7 6 6 6 6 5 5 5 5 4 4 5 5 5 5 5 5 5 5 5 4 3 5 7 7 5 3 3 3 3
15 14 14 12 10 9 9 9 9 9 9 7 7 7 8 9 9 9 9 9 9 9 8 8 7 7 7 7 7 6 6 6 6 6 6 6 5 5 4 4 5 4 3 3 3 3 4 4 4 5 4 4 4 4 3 4 5 6 6 5 5 4 3
15 14 13 11 8 7 8 8 8 9 9 8 8 7 8 9 9 9 8 8 8 8 8 8 7 7 7 7 6 5 5 5 5 5 5 5 5 5 4 4 4 3 3 3 2 2 3 3 3 3 3 3 4 3 2 2 3 4 6 6 6 5 4
15 14 13 12 9 7 8 8 7 7 8 9 9 9 9 9 10 10 9 9 8 8 8 8 7 6 6 5 5 5 4 4 4 4 4 4 4 5 4 4 4 4 3 3 3 2 3 3 2 3 3 3 4 4 3 2 1 3 5 5 4 4 4
15 14 13 12 10 8 7 7 6 6 7 8 9 10 10 10 11 11 10 10 9 9 8 8 7 7 6 5 5 4 4 4 4 4 4 4 4 4 5 5 5 5 5 4 4 3 3 4 3 3 3 3 4 4 3 2 1 2 3 4 4 3 3
14 14 13 12 11 8 7 7 7 7 8 8 8 10 10 11 11 11 11 11 10 10 9 8 8 7 6 5 4 4 3 3 4 4 5 5 6 6 6 6 6 6 7 6 6 5 5 5 4 4 4 4 3 4 4 3 3 3 3 3 4 4 3
13 12 12 12 11 9 8 9 10 9 9 8 9 10 11 12 12 12 12 12 12 11 11 10 9 7 6 5 4 2 1 2 3 4 5 6 6 7 8 8 9 9 9 8 8 7 7 7 6 6 6 5 4 4 5 5 4 4 3 3 4 3 3
13 13 12 12 11 10 9 9 10 10 10 9 9 10 12 13 13 13 14 14 14 14 12 11 9 8 5 4 3 3 2 2 3 4 6 7 8 8 9 9 10 10 10 10 10 10 9 9 8 8 8 8 6 6 6 6 6 7 6 6 6 5 5
11 12 13 12 11 10 10 10 10 10 11 10 10 10 11 13 14 14 15 15 16 17 16 13 12 10 7 4 2 3 4 4 5 6 7 8 8 9 9 10 11 11 11 12 12 12 12 12 12 10 9 9 9 8 8 8 8 8 9 9 8 7 7
9 11 12 12 11 10 11 12 11 11 12 12 11 11 12 14 15 16 16 15 17 19 20 18 17 15 12 6 2 3 5 5 6 7 8 10 10 9 9 9 9 11 13 14 13 13 14 15 16 14 12 10 9 9 9 9 9 9 8 9 10 8 8
8 9 10 11 11 11 12 13 13 13 13 13 13 14 15 16 17 17 17 17 17 19 20 19 19 21 19 14 9 9 8 6 7 8 8 10 11 9 8 8 7 9 12 12 11 12 13 13 15 16 16 14 12 11 11 10 9 9 8 9 9 8 7
7 8 8 9 10 11 13 14 14 13 14 15 16 15 16 18 18 18 18 17 19 20 20 20 21 22 22 21 21 17 11 7 8 9 9 9 10 9 8 8 7 7 8 8 8 9 11 11 11 13 16 18 18 16 14 12 9 7 6 7 8 8 7
6 7 7 8 9 11 13 14 15 15 15 16 18 18 19 20 20 19 18 18 19 20 22 24 24 23 23 24 24 19 11 8 9 9 8 8 7 6 5 5 4 4 5 6 6 5 5 8 9 11 14 18 20 19 17 16 13 9 6 6 7 7 6
6 7 7 8 9 11 13 14 15 15 14 15 17 19 20 21 21 19 19 19 19 18 19 21 22 22 25 25 22 17 12 10 9 8 8 7 5 4 3 2 2 1 0 1 2 2 3 4 6 8 10 14 15 15 14 13 11 9 7 5 5 6 3
5 6 7 8 10 11 12 14 15 14 14 15 16 17 19 21 20 20 20 20 19 18 18 20 20 21 23 23 20 16 12 11 9 7 7 6 4 3 2 2 2 2 1 1 2 3 3 3 3 4 7 9 9 10 11 11 9 8 5 4 3 3 2
5 6 7 9 10 11 12 14 14 13 13 14 15 16 18 19 20 21 20 19 19 18 17 20 22 23 23 22 19 16 13 11 10 8 7 6 5 4 4 3 3 3 2 1 0 1 4 5 5 6 9 9 8 9 11 11 10 9 8 7 6 6 6
7 6 7 9 10 12 13 13 13 13 13 14 15 16 17 17 18 19 18 17 17 16 16 20 22 23 24 23 20 17 14 13 11 10 9 7 6 6 6 6 5 4 3 3 3 5 7 8 7 7 9 8 7 7 7 9 8 8 9 8 8 9 9
9 8 7 8 9 11 13 13 13 13 14 15 16 16 16 17 18 18 17 16 15 14 15 18 22 24 25 25 22 17 14 13 11 10 10 8 7 7 8 7 7 5 5 5 5 6 8 8 6 6 7 7 6 5 5 6 6 7 7 7 8 9 10
11 10 9 9 9 10 11 13 14 14 14 15 16 17 16 17 18 20 20 17 15 16 16 20 24 26 26 26 22 16 14 13 12 11 10 9 8 8 8 7 7 6 5 5 5 4 5 6 4 4 4 5 5 5 4 4 3 3 4 5 6 8 9
12 12 12 11 10 9 9 11 13 15 16 16 16 16 16 17 17 20 22 21 20 20 21 24 27 27 26 26 22 16 13 13 13 11 11 10 10 9 9 8 7 7 6 6 5 4 4 5 5 3 2 3 4 4 4 4 4 4 4 4 6 7 8
13 13 13 12 12 11 9 8 9 12 14 16 16 15 15 15 15 16 18 20 21 22 24 27 30 29 27 26 22 17 13 12 12 12 11 11 11 10 10 9 9 9 7 6 6 5 4 5 5 4 3 3 4 4 2 2 4 5 5 6 7 8 9
14 13 13 12 12 12 10 9 8 9 11 14 15 14 13 12 11 9 9 12 15 19 24 28 31 30 27 26 24 19 14 13 13 12 11 11 11 10 11 11 10 10 8 6 6 5 4 5 4 3 3 2 3 3 2 2 3 5 6 7 8 9 9
14 14 13 13 13 13 12 10 9 8 10 11 13 13 13 13 11 9 11 10 10 13 19 26 30 30 27 25 23 20 16 15 15 12 10 11 11 10 11 12 11 10 8 6 5 4 3 3 2 1 1 1 2 3 2 2 4 5 6 8 9 9 10
15 15 14 14 14 14 13 12 10 10 10 11 12 13 15 16 14 13 15 15 13 14 17 23 29 29 26 24 23 21 17 16 15 12 9 10 11 11 11 12 11 9 7 5 4 3 1 1 0 0 1 2 4 3 2 3 5 6 7 8 8 9 9
Wind_Direction
134 136 138 135 133 131 128 127 125 122 121 125 129 126 121 117 114 116 118 124 144 154 162 167 164 167 168 161 162 170 175 179 191 194 181 185 192 187 192 201 189 168 175 192 172 159 151 123 114 99 88 86 80 76 74 74 77 75 73 70 69 69 65
138 143 144 140 137 133 129 126 124 120 116 115 120 120 115 108 106 112 118 118 120 127 136 140 140 144 149 152 154 159 167 173 184 187 183 190 189 173 169 171 171 169 168 183 199 179 159 141 132 118 113 107 91 80 76 79 80 77 74 69 67 69 67
146 150 148 145 142 139 136 132 129 126 121 116 114 111 102 95 93 100 110 109 103 101 106 118 126 135 145 144 141 149 159 162 165 170 176 180 171 162 165 166 167 170 165 168 181 178 158 143 135 134 134 125 106 89 80 83 85 80 76 71 67 66 66
157 157 151 149 148 144 142 137 134 132 126 121 115 105 96 94 93 95 103 101 93 92 95 104 114 122 133 132 129 137 146 147 147 148 152 155 155 156 160 165 163 159 161 164 165 165 157 145 141 141 137 127 118 107 94 86 82 79 75 71 68 67 67
166 164 154 150 147 142 140 137 136 134 129 124 118 109 100 101 101 99 101 101 95 94 95 97 101 106 111 113 119 128 135 138 137 136 137 141 146 146 141 142 140 140 152 157 155 161 161 151 149 147 140 135 125 117 113 102 88 78 70 66 65 64 67
171 168 154 146 142 137 135 134 134 134 130 123 116 111 105 105 107 104 102 102 101 98 98 97 95 96 98 104 113 120 125 129 129 129 130 131 133 129 121 118 114 118 118 113 134 154 156 153 155 152 142 139 132 129 132 126 105 86 70 62 59 60 62
164 166 155 144 137 131 127 129 131 129 126 120 113 108 108 108 105 103 100 98 98 97 98 98 93 89 91 103 110 111 113 116 116 118 121 120 118 115 111 110 106 105 103 102 116 140 155 160 161 156 143 137 138 141 140 133 114 90 74 61 55 59 61
162 158 156 145 135 127 123 122 124 125 120 115 110 105 107 109 106 102 100 98 98 99 100 101 96 89 89 102 108 104 103 106 108 110 114 113 111 109 107 107 107 103 101 107 114 129 148 159 155 153 150 144 146 141 131 120 101 83 78 72 61 58 63
166 154 156 152 140 130 125 121 119 122 118 111 107 104 104 106 105 102 100 100 101 103 104 102 97 93 93 101 106 103 100 103 108 111 114 113 111 109 106 106 110 106 99 102 105 108 121 136 144 152 159 155 149 142 133 121 100 84 73 74 73 65 63
169 162 164 159 147 135 129 125 123 121 118 112 103 99 101 103 103 103 101 102 104 106 107 101 99 103 104 105 109 108 105 109 112 111 112 116 114 112 110 108 109 107 101 99 100 102 107 120 137 156 168 166 165 156 145 130 108 93 73 56 70 74 70
173 173 168 158 155 148 132 128 137 130 119 120 114 105 105 105 105 104 102 103 105 106 106 103 104 108 109 108 109 109 109 112 112 109 110 113 112 112 110 107 107 106 101 100 100 103 107 115 127 135 131 134 143 132 131 126 107 90 83 68 62 70 75
175 177 163 148 161 164 133 123 139 135 121 127 127 121 117 114 115 112 109 109 108 109 109 109 112 113 112 111 111 112 112 112 112 109 111 111 110 114 111 105 104 102 99 101 103 105 108 111 116 116 110 103 89 91 119 133 122 96 92 94 82 72 77
175 174 162 151 167 170 130 118 131 134 137 150 141 136 132 128 130 127 123 122 119 120 118 117 119 119 119 119 119 122 121 119 116 113 117 117 117 122 120 112 110 108 107 109 108 109 111 111 112 114 112 106 98 100 118 126 120 114 107 111 112 100 96
179 176 171 170 179 174 141 133 146 150 159 170 157 148 145 141 143 142 140 137 133 132 128 124 125 124 124 124 124 127 130 128 124 121 124 125 127 134 134 128 126 124 121 118 125 129 127 126 125 123 124 121 114 111 116 121 124 126 127 136 138 123 124
189 187 183 184 187 177 156 151 164 173 176 179 170 158 153 153 154 152 151 147 143 141 137 134 133 130 130 129 127 131 135 134 130 130 135 137 138 142 146 145 140 140 136 131 147 150 139 151 157 141 136 131 122 118 123 130 134 137 142 155 160 145 140
197 193 190 192 190 179 169 165 175 185 186 187 186 172 161 162 162 158 156 153 149 149 147 146 144 140 138 137 137 139 141 140 137 139 147 152 153 154 159 162 158 160 162 157 173 162 148 177 184 144 137 134 130 128 121 126 138 145 148 159 175 171 153
199 196 197 201 198 187 179 179 183 187 188 192 195 191 179 171 168 166 164 161 160 160 158 157 156 153 152 151 150 150 153 159 160 164 168 166 165 168 175 182 181 182 186 187 195 189 177 195 194 155 154 157 152 145 140 146 151 152 152 156 175 181 166
201 203 206 206 204 198 187 186 190 191 193 194 195 198 192 181 176 175 173 170 169 167 165 164 162 161 162 163 164 165 171 179 188 196 202 202 202 200 200 204 201 198 201 205 207 206 200 207 209 192 186 184 172 164 173 189 170 160 168 161 163 176 183
206 209 209 206 205 204 204 208 208 204 203 199 197 199 198 192 186 181 178 176 172 168 165 162 157 156 158 159 162 167 172 188 203 211 215 219 222 223 222 223 220 215 214 216 219 218 212 215 222 219 217 220 200 176 188 207 195 189 193 173 171 183 190
215 215 211 206 205 206 209 213 215 213 208 203 203 203 200 197 192 185 181 176 171 166 161 155 150 147 149 149 147 149 172 208 227 230 234 236 233 232 235 235 234 230 227 227 227 227 223 219 224 229 226 228 225 204 207 227 230 225 224 220 225 227 211
223 221 217 211 209 208 207 207 210 211 209 207 211 211 205 199 191 185 179 173 169 164 158 156 155 151 144 136 112 66 30 342 304 275 258 253 247 245 247 246 245 243 240 238 237 237 234 224 222 228 223 218 220 218 221 231 238 246 253 260 270 274 269
226 224 221 219 217 210 206 206 208 210 208 205 207 209 205 197 188 183 179 172 172 174 173 176 180 175 163 149 120 48 22 351 317 302 287 273 262 257 258 257 254 250 243 241 242 242 239 232 231 236 231 218 214 222 234 235 236 248 259 266 272 274 278
234 230 228 229 229 223 219 215 210 212 213 208 204 202 199 193 186 184 181 176 179 187 191 196 203 203 195 183 194 342 359 345 314 303 293 284 276 268 265 262 256 257 259 260 260 255 246 240 240 245 244 228 216 222 236 239 242 251 259 269 276 274 280
248 246 240 238 235 234 237 231 219 215 214 209 204 198 195 194 191 189 188 185 188 196 201 206 211 212 209 209 236 274 306 317 301 292 282 279 280 277 273 266 258 267 274 275 272 268 261 252 245 244 242 233 228 231 234 237 243 249 255 267 275 272 275
258 258 255 250 243 239 241 240 234 226 213 203 201 201 201 201 197 196 198 199 202 210 220 227 225 220 218 221 229 243 267 279 272 275 277 276 278 279 278 274 266 268 270 267 269 271 272 268 254 242 235 230 230 233 233 231 232 238 254 266 272 272 272
256 260 260 256 252 247 245 244 243 238 223 210 208 210 210 206 202 204 209 214 220 225 236 245 243 234 232 231 226 226 236 239 238 251 258 260 266 269 274 278 270 263 263 268 272 264 263 267 259 242 230 226 227 230 229 228 225 227 242 259 274 277 271
256 260 258 253 250 246 245 245 245 243 233 220 213 209 208 206 207 214 219 223 228 230 234 245 248 237 230 227 219 213 218 220 220 229 232 231 233 230 230 236 225 208 232 266 255 220 208 242 256 246 227 218 220 222 223 223 222 227 239 254 279 288 277
278 268 261 257 253 247 244 244 245 243 235 225 218 213 211 212 217 226 228 225 229 232 232 237 238 226 216 211 205 201 203 201 195 194 195 195 188 178 174 156 130 116 124 226 243 229 192 183 210 212 188 181 184 190 198 206 210 217 226 235 259 273 253
328 296 276 264 257 251 246 242 241 242 235 229 227 224 223 223 225 229 230 227 228 229 228 230 226 212 201 196 190 187 185 179 173 169 163 157 149 145 140 124 107 103 106 122 175 156 151 151 152 152 152 152 155 173 196 209 217 227 237 242 246 248 253
346 327 300 279 266 259 252 243 238 238 234 230 230 230 229 229 228 228 230 231 228 225 225 224 216 203 193 186 178 175 175 170 163 159 151 144 143 150 150 137 117 108 112 110 97 100 113 125 138 147 151 152 150 164 200 221 232 244 253 256 258 261 267
340 335 320 298 281 269 259 249 240 236 232 231 232 234 236 234 231 229 229 230 227 225 224 216 205 196 188 180 172 172 173 165 158 154 148 142 140 145 149 143 129 124 129 122 110 102 106 115 133 148 153 160 159 158 187 223 245 260 267 274 279 281 285
331 330 325 314 298 282 267 255 246 238 233 233 238 244 244 241 236 230 229 232 228 215 205 199 196 192 184 175 171 173 172 163 159 159 154 146 137 133 138 142 136 129 128 127 123 121 121 123 136 158 169 191 198 177 167 183 212 243 266 282 288 291 295
326 325 321 317 307 293 276 262 252 242 235 235 240 244 243 241 237 231 230 231 225 213 204 196 190 187 182 176 173 172 172 168 164 163 160 151 143 137 132 133 134 129 126 130 129 129 140 141 138 143 174 215 199 167 155 181 221 241 255 269 274 277 280
319 318 315 314 308 297 282 266 253 242 235 231 229 231 234 237 235 228 226 225 219 215 209 194 182 182 183 178 173 171 173 174 169 165 164 159 153 147 138 136 142 141 137 140 140 137 153 160 153 150 163 185 187 180 176 230 269 279 275 268 272 275 276
308 308 306 307 306 299 287 274 258 242 235 229 221 216 216 220 220 209 205 213 214 210 202 186 177 181 184 179 175 173 172 173 171 166 163 161 155 146 141 145 153 154 152 157 159 158 168 174 176 183 185 194 227 252 269 277 285 287 280 277 282 284 283
297 297 297 298 297 293 289 282 266 245 235 225 218 214 206 200 197 182 172 178 191 194 190 183 180 183 184 179 177 176 172 170 169 164 161 159 150 139 144 156 162 161 161 163 161 160 168 174 183 211 218 262 295 317 328 296 281 286 287 288 289 289 288
285 285 287 288 288 283 280 278 267 251 237 220 212 216 209 196 189 179 168 165 171 178 186 189 187 184 181 180 179 178 176 171 165 160 155 150 142 139 151 164 165 161 161 162 158 154 151 152 109 43 2 342 353 5 347 290 285 291 291 288 289 292 293